Location: Casilda
(33.0440°S, 61.1680°W)
Time: 17:35:09
(UTC-03:00)

ISS - Pass Details

Date: 14 March 2018
Orbit: 403 x 408 km, 51.6° (Epoch: 20 September)

Event Time Altitude Azimuth Distance (km) Brightness Sun altitude
Rises 20:40:40 0° 240° (WSW) 2,376 1.6 -16.8°
Reaches altitude 10° 20:43:02 10° 254° (WSW) 1,509 0.4 -17.3°
Maximum altitude 20:45:48 23° 309° (NW) 939 -1.6 -17.8°
Enters shadow 20:47:59 13° 357° (N) 1,320 -1.4 -18.3°
